SAOCOM 1A (43641 NORAD) Tracking and Keplerian Element Data

This shows tracking and keplerian element data for the satellite.

Feedback or suggestion? Click here.




ElementValue
Catalog43641
NameSAOCOM 1A
Epoch Orbit441
Epoch Day310.86182962
Epoch Year2018
RAAN135.3162
Inclination97.8916
Eccentricity0.0011575
Argument of Perigee132.4933
Mean Anonmoly227.5224
Mean Motion14.81799598
Decay Rate-0.00013074
L11 43641U 18076A 18310.86182962 -.00013074 00000-0 -16510-2 0 9997
L22 43641 97.8916 135.3162 0011575 132.4933 227.5224 14.81799598 4419

Live tracking and technical data element details for SAOCOM 1A (NORAD 43641). SAOCOM 1A can be tracked NOW for your location showing map with azimuth and elevation plus other details from your city location.

Track the satellite on the map from your city or location and see movement details for azimuth, elevation, latitude, longitude, range, height, and movement on the map or in text.







IsCatalogInMostPopularTable: catalog: 43641, numindb: 17
Update: records affected: 1



GetName: 43641 SAOCOM 1A

Hit Count: updated at: Thu, 15 Nov 2018 03:59:31 GMT